RH
76 77 77 77 78 78 79 80 81 82 81 80 79 78 79 80 80 80 79 79 78 77 78 80 80 82 68 34 29 28 52 38 40 46 48 54 61 70 68 72 74 84 73 61 62 62 62
77 77 78 79 80 80 79 80 83 83 82 81 80 80 81 80 80 80 80 80 79 79 81 81 80 84 55 33 25 33 33 34 38 46 51 54 55 60 73 77 78 67 72 68 66 58 59
76 77 78 79 80 81 79 80 82 82 80 78 77 78 78 78 79 78 78 79 80 80 82 82 80 73 57 27 36 39 36 39 41 47 50 51 53 62 68 69 65 70 74 55 49 46 54
73 75 78 79 80 80 79 79 80 80 79 78 78 79 77 79 79 80 83 83 84 88 86 82 77 72 39 35 41 33 38 42 41 44 49 51 61 64 72 62 52 54 56 61 42 47 46
72 73 75 79 79 79 79 78 78 78 79 80 79 78 78 80 84 87 88 84 79 82 77 78 74 53 29 38 29 37 43 43 45 50 52 44 56 63 51 62 63 57 70 63 57 44 48
74 73 74 76 79 78 78 77 78 79 80 79 78 78 80 83 85 88 83 72 73 69 67 64 45 34 24 28 35 42 44 44 46 46 49 49 55 53 58 60 57 60 69 67 66 49 53
78 75 74 75 78 78 78 77 77 78 79 78 78 82 83 86 84 85 65 44 45 27 50 42 40 37 33 37 43 39 43 44 44 41 47 55 50 56 54 62 58 68 73 73 60 49 58
80 79 77 76 77 78 77 76 76 77 78 78 80 83 82 84 84 76 63 68 77 68 62 58 53 49 43 45 37 34 37 40 42 46 49 45 44 47 55 57 57 60 60 57 56 53 50
83 82 80 78 77 78 78 78 77 76 78 79 83 83 83 84 77 71 74 80 74 79 76 47 52 49 40 41 44 38 42 50 48 41 55 54 42 49 51 48 58 56 58 62 67 61 52
86 84 83 81 79 79 80 79 78 77 82 86 83 83 84 82 54 73 75 78 78 75 47 28 34 37 36 48 34 42 47 48 43 45 55 45 43 49 55 38 61 51 58 63 67 52 54
90 88 88 86 83 82 82 80 77 78 85 86 84 82 83 74 68 65 77 84 81 58 57 25 32 35 39 38 42 34 50 42 50 45 35 27 46 57 46 34 61 44 57 67 66 57 55
91 90 90 89 87 85 84 82 79 80 86 85 85 83 84 69 73 85 87 85 59 56 44 32 38 34 28 34 37 37 37 36 48 36 39 44 44 57 46 53 52 45 49 44 57 59 74
93 91 91 90 89 88 86 84 81 82 84 84 85 84 78 69 64 84 86 50 58 59 25 30 38 35 41 39 34 35 40 45 43 46 46 34 32 31 47 42 48 56 55 67 60 76 64
93 93 92 91 90 89 87 85 82 80 83 85 84 79 79 77 85 86 53 32 38 26 30 40 36 34 38 40 36 30 32 44 44 38 46 51 51 32 34 54 60 57 56 69 45 64 62
95 93 92 91 91 89 88 86 83 83 83 85 77 77 89 87 81 67 37 54 41 26 43 41 30 24 29 32 32 31 32 46 50 43 42 38 33 35 49 52 52 49 69 61 64 71 56
96 95 94 93 91 90 90 88 86 82 82 82 76 63 67 85 83 56 39 44 31 42 48 44 29 35 38 34 32 36 33 43 51 46 44 44 44 38 35 37 37 53 53 42 59 58 58
97 96 95 94 92 93 93 90 85 78 80 75 52 38 46 85 66 52 46 40 40 44 48 45 40 40 42 40 45 41 33 39 48 50 48 52 47 37 36 33 35 47 40 46 50 62 45
98 97 96 95 94 94 93 91 84 76 76 60 45 45 54 61 42 84 50 50 58 43 54 47 50 45 44 47 45 42 36 35 46 46 46 52 52 54 37 34 38 51 45 36 46 41 53
98 97 96 96 96 95 93 91 84 77 66 54 40 46 59 50 46 37 45 50 52 45 45 52 52 49 49 49 40 40 37 46 43 40 41 39 38 46 39 41 40 40 48 45 50 54 54
97 98 97 96 97 96 96 93 87 81 73 52 45 43 50 68 65 40 46 39 39 52 50 51 51 47 49 46 50 48 48 44 44 42 57 45 47 35 45 37 34 37 38 46 43 71 52
96 97 98 97 97 96 96 93 90 83 80 54 48 46 53 50 57 65 61 62 51 43 52 51 48 45 41 45 48 46 44 39 38 53 64 52 57 61 49 47 46 45 47 50 56 51 50
96 97 97 97 97 96 96 94 90 84 76 57 52 48 68 50 60 72 73 64 55 47 46 46 46 46 48 45 39 39 46 45 39 47 71 68 56 68 74 59 59 61 54 58 58 55 55
96 95 97 98 97 96 96 94 89 87 74 66 74 75 46 51 61 60 50 49 45 48 45 46 45 44 44 41 42 38 40 39 48 46 56 58 65 62 76 57 51 57 83 72 85 84 86
96 96 96 97 98 97 96 94 92 88 75 63 75 56 48 57 52 53 44 44 44 46 41 45 46 52 49 60 63 71 78 74 67 62 50 63 64 53 72 60 79 83 83 80 83 82 77
96 97 97 98 98 97 96 94 91 88 81 75 86 55 49 54 42 40 41 46 48 66 52 55 60 46 66 69 78 78 78 72 79 71 77 60 63 69 72 71 60 98 88 84 87 89 78
96 97 98 98 98 97 96 94 90 87 86 79 85 76 56 47 47 37 41 46 52 69 80 74 79 77 70 80 79 89 82 81 77 80 60 59 62 72 71 76 72 90 77 71 79 90 76
97 97 98 98 97 97 95 93 91 88 86 90 93 84 68 54 54 65 63 67 69 77 80 86 83 85 81 89 89 90 88 82 83 84 84 73 72 73 72 78 74 77 74 71 94 90 76
98 97 98 98 98 97 95 94 91 89 88 91 97 93 89 84 89 88 87 79 86 80 84 84 79 87 86 91 89 80 90 81 94 86 83 75 79 79 76 82 90 81 77 84 90 69 76
98 98 98 98 98 97 95 93 90 90 90 90 99 95 95 94 96 78 58 59 80 90 84 87 86 89 86 88 91 94 95 97 93 94 81 90 88 90 89 89 83 73 80 75 76 83 84
Wind_Speed
8 9 9 10 10 11 11 11 11 11 10 10 10 11 12 13 14 14 14 14 14 14 12 11 10 10 0 3 5 1 1 5 1 2 1 1 2 1 3 3 4 4 5 4 9 15 12
8 9 9 9 10 11 11 12 12 12 13 14 14 14 14 15 16 16 17 17 16 15 11 9 8 8 2 2 1 2 4 4 1 1 1 2 3 2 2 3 2 2 6 15 10 8 6
7 8 9 10 11 11 12 12 13 13 15 16 16 17 18 17 17 17 18 17 18 15 11 8 5 0 1 8 2 3 3 2 0 1 1 2 3 2 1 5 3 4 7 9 3 4 4
6 7 9 10 11 11 12 13 14 14 16 17 18 18 19 18 18 18 17 17 17 10 6 4 3 1 5 1 1 3 4 2 4 1 1 1 4 3 1 5 6 4 1 6 7 7 3
5 6 8 9 10 12 13 13 14 15 16 17 17 18 20 20 19 19 17 15 5 4 4 5 2 2 5 1 3 2 1 3 2 2 3 4 3 2 4 5 5 6 6 6 9 3 3
6 5 7 9 10 10 11 13 14 14 14 15 17 19 20 20 21 21 19 2 2 4 2 0 2 2 3 2 4 2 0 1 3 2 2 5 5 3 3 6 5 8 5 5 6 6 5
6 6 7 8 8 10 10 11 12 13 15 16 18 18 18 18 20 19 10 4 8 4 8 1 4 3 4 7 3 2 3 2 2 8 4 4 6 3 6 3 6 5 4 6 5 3 5
7 7 7 7 8 9 10 11 12 13 14 15 16 17 20 18 18 14 5 7 2 2 9 3 3 4 4 3 4 3 4 3 5 3 6 6 2 4 6 4 5 3 5 5 8 3 4
9 8 7 7 6 8 10 11 12 13 14 16 15 17 20 19 7 6 5 3 3 2 1 7 2 2 3 3 2 4 4 2 4 5 5 1 3 6 3 4 7 2 3 6 5 7 1
9 9 8 8 6 7 8 9 11 12 13 14 16 17 18 22 7 2 3 5 3 1 5 6 4 3 2 0 2 2 3 1 3 4 3 3 4 6 5 2 1 5 1 3 5 3 3
11 10 9 7 7 6 6 8 10 11 12 13 15 17 15 10 2 4 4 5 1 2 6 4 4 2 2 4 3 3 2 3 1 3 4 3 6 6 5 5 0 7 4 2 3 3 3
12 11 9 8 6 6 6 7 9 11 10 12 14 17 12 4 3 0 5 3 3 8 5 4 2 5 5 5 5 7 5 6 1 2 2 4 3 0 4 5 2 8 2 4 3 2 6
13 11 10 9 8 7 6 6 8 9 11 12 14 14 5 1 2 5 3 3 8 5 3 4 4 5 1 5 5 6 5 7 5 6 7 6 2 4 2 6 5 10 6 4 7 6 1
14 14 13 11 10 8 7 5 7 9 10 12 15 7 5 1 4 3 2 7 1 2 2 3 3 3 3 4 3 7 3 5 4 4 1 3 8 6 7 3 3 6 4 3 2 1 4
15 15 14 14 12 10 8 5 4 6 9 11 9 2 2 4 4 2 5 5 6 4 2 6 5 3 4 2 2 5 3 0 1 3 3 4 5 2 2 1 1 5 6 1 4 1 1
16 16 17 16 14 12 10 7 7 3 7 9 2 2 2 6 5 4 6 4 3 2 2 1 2 2 2 5 4 5 2 1 2 2 2 1 4 1 4 1 3 5 1 4 4 3 2
16 17 17 17 16 13 12 9 7 1 4 2 3 4 2 5 2 5 3 6 3 3 1 2 1 3 1 2 1 2 1 2 2 1 3 2 2 7 1 3 2 3 3 5 5 2 1
14 15 17 18 17 16 14 11 8 4 2 4 3 3 2 2 4 1 2 4 2 3 1 2 2 2 2 1 2 2 1 1 2 1 1 1 4 4 4 4 3 2 4 4 4 3 2
14 16 17 17 17 16 15 13 10 7 3 3 2 3 2 4 1 2 3 3 3 1 3 2 2 3 1 2 2 2 1 0 3 1 1 3 1 5 6 4 2 3 1 4 5 3 5
14 15 16 16 17 17 16 15 12 10 7 2 3 3 4 4 1 3 1 3 3 2 2 2 2 2 1 2 2 3 2 1 4 2 6 2 2 7 7 6 3 5 4 4 5 3 3
13 14 16 16 16 17 17 16 14 12 11 3 2 5 2 2 3 3 2 1 3 2 2 2 1 4 5 3 1 4 2 4 3 4 3 4 4 4 6 8 4 7 9 5 7 5 6
13 14 15 17 17 19 19 19 16 14 11 1 4 4 1 1 2 5 3 4 6 3 5 3 4 5 4 5 7 4 2 2 6 3 3 2 3 1 5 6 2 6 7 6 5 2 5
13 14 15 16 17 19 19 20 19 18 9 3 1 1 2 3 3 4 5 6 5 3 1 1 4 4 3 5 4 6 7 5 3 3 2 1 2 2 6 4 7 5 2 2 4 6 2
13 14 14 15 16 18 21 21 20 21 12 2 3 3 3 4 4 6 4 5 6 6 2 2 2 3 2 2 4 3 3 3 4 6 7 6 4 2 5 5 3 2 5 5 11 8 7
14 14 14 15 15 18 21 22 22 21 18 1 2 2 3 3 3 2 5 5 1 1 2 2 2 2 1 5 3 6 4 2 2 4 2 5 5 3 2 2 4 3 3 2 1 4 6
16 15 15 15 17 20 22 23 23 21 20 3 2 1 2 3 6 4 4 5 5 4 1 2 1 1 4 3 1 2 3 2 2 2 5 6 4 3 2 3 5 3 1 3 3 5 4
17 17 16 18 20 22 24 24 24 21 20 5 2 4 2 2 1 3 3 4 4 2 2 2 3 1 2 2 3 4 4 2 3 2 4 3 1 5 4 4 3 1 6 3 3 2 2
18 18 18 18 20 22 23 23 23 23 21 6 2 3 4 3 1 2 3 4 2 2 4 4 3 0 2 3 3 3 3 3 2 3 4 6 5 4 2 3 8 4 1 1 2 3 3
19 18 18 19 21 23 25 25 25 24 22 8 2 3 1 2 2 3 3 3 2 1 2 1 3 3 3 3 2 3 3 1 3 4 1 3 1 2 1 1 5 6 7 4 2 2 2
Wind_Direction
28 27 23 17 19 16 13 8 8 2 353 349 352 340 331 329 326 321 318 315 310 306 305 307 314 321 359 26 253 256 51 340 2 121 138 119 67 110 326 289 310 202 270 279 264 286 273
20 19 14 11 11 11 9 7 4 359 349 351 349 338 338 334 327 325 321 318 310 303 294 293 303 317 131 316 164 61 358 341 74 118 168 171 185 187 254 255 192 252 270 283 287 284 260
9 13 3 6 6 3 4 4 1 358 355 355 350 345 342 334 329 322 318 312 307 301 285 277 276 284 140 225 88 344 345 314 42 151 275 223 155 120 61 299 289 288 315 322 231 292 284
348 1 1 4 359 357 2 2 1 358 357 355 350 346 338 333 327 321 316 314 309 304 275 241 192 150 240 254 163 60 349 69 14 78 166 60 121 99 152 306 351 334 55 345 298 341 2
324 344 350 355 0 358 358 1 1 0 360 354 349 346 338 333 326 321 314 317 330 75 110 136 135 151 287 325 32 346 41 324 298 64 68 97 61 76 21 11 353 14 298 302 311 309 310
298 321 334 347 352 356 0 359 359 358 358 352 350 346 340 335 331 324 321 299 18 83 73 152 71 57 320 307 291 311 283 44 82 107 57 52 49 51 42 41 325 301 324 293 263 307 355
284 302 321 332 341 346 351 356 357 355 354 352 350 343 340 338 335 329 346 29 15 350 42 261 302 269 316 289 302 3 11 52 28 56 19 351 59 338 292 229 233 273 242 268 269 307 351
264 282 297 309 326 336 342 350 353 354 352 349 348 342 337 338 338 336 38 68 95 259 316 334 249 282 245 285 342 351 19 51 47 26 339 17 36 305 271 252 271 270 293 327 296 325 28
247 257 271 287 310 329 340 344 347 350 348 343 343 344 338 334 344 37 64 61 317 166 306 311 273 298 321 3 342 296 30 103 72 25 26 143 298 319 346 329 356 321 23 316 263 319 76
239 252 263 278 296 319 332 338 341 345 344 341 341 342 343 330 50 316 49 331 328 133 54 315 356 12 347 60 347 320 2 58 36 21 2 247 322 350 322 358 34 335 66 276 306 33 17
227 235 242 250 277 296 313 328 335 338 339 340 339 340 344 25 244 53 307 327 315 73 31 288 308 199 321 67 311 344 337 22 62 320 87 300 344 354 335 328 316 258 347 2 333 76 41
229 232 236 236 239 267 299 316 326 330 337 339 338 337 332 19 56 353 315 325 60 42 265 354 304 354 18 17 351 321 17 42 105 117 46 259 286 215 270 318 273 290 46 42 46 52 42
222 225 229 231 236 242 259 294 312 327 334 338 336 337 356 70 306 334 325 43 31 120 324 326 329 14 11 329 2 32 23 14 32 22 359 326 346 328 355 351 358 15 37 1 19 18 238
219 218 216 220 225 229 248 265 310 328 335 334 332 349 342 50 320 349 55 48 85 315 326 355 335 316 60 9 22 353 43 25 26 54 40 35 336 19 333 63 305 350 51 109 124 0 295
221 218 215 210 214 217 231 254 280 317 326 335 327 5 347 327 328 56 67 56 222 197 263 336 320 41 352 19 6 27 49 294 262 39 42 12 289 327 57 343 78 331 35 227 99 43 80
225 220 214 211 209 207 218 224 248 295 339 349 13 20 289 325 335 56 72 229 249 239 337 36 302 41 326 319 22 33 354 309 16 35 106 289 306 315 292 140 52 103 173 31 10 37 11
228 226 218 212 204 205 206 214 213 277 354 21 41 11 260 341 44 49 158 223 270 277 180 153 244 294 261 292 290 295 305 28 17 25 69 114 113 288 17 33 257 360 38 65 117 77 104
233 225 223 218 209 201 197 198 194 165 345 52 93 318 306 23 35 3 177 209 239 252 226 263 153 218 217 248 295 289 270 239 315 154 71 220 153 283 268 302 274 237 152 127 121 235 142
232 227 221 219 217 205 192 189 176 163 164 139 133 251 320 76 201 266 275 278 241 214 236 219 222 205 197 232 318 226 281 256 34 29 102 190 312 336 358 354 340 292 56 90 89 79 215
232 225 226 220 215 202 191 184 170 165 155 92 94 278 339 59 40 152 245 251 264 198 247 196 218 121 156 240 182 279 284 247 328 311 39 104 174 187 201 225 184 282 195 192 144 162 205
227 226 223 218 213 206 191 178 169 168 163 150 112 234 187 211 226 175 194 275 245 221 214 196 219 200 187 227 269 235 249 328 329 6 71 107 234 179 260 266 230 252 268 219 196 200 192
234 226 223 220 208 205 191 172 174 165 139 125 155 164 21 155 109 145 206 235 212 240 168 237 222 182 177 202 201 239 186 195 238 5 74 10 271 317 262 278 272 259 267 242 230 222 258
234 231 225 219 209 206 189 172 172 157 159 185 138 19 147 146 144 135 214 219 222 187 215 217 202 143 200 237 222 227 210 213 207 159 124 259 180 21 275 347 311 295 316 82 107 66 352
229 224 224 222 211 200 181 173 175 175 183 149 176 135 141 221 184 196 201 195 214 215 213 178 136 174 200 312 288 286 243 229 201 230 185 161 155 201 274 345 262 92 358 101 104 75 55
221 219 216 211 205 191 182 179 180 179 183 126 139 149 155 232 191 204 215 208 136 8 199 188 201 191 68 35 8 332 334 177 83 42 210 176 149 225 233 241 292 190 41 68 20 91 36
219 213 210 207 199 192 187 182 181 181 177 142 166 135 111 123 236 98 152 174 187 192 225 211 131 169 72 90 100 233 265 271 271 135 44 88 86 151 151 216 259 97 152 26 215 214 38
221 212 208 204 199 194 188 185 181 180 171 136 163 126 105 203 298 117 187 189 136 120 139 143 172 135 41 130 187 200 253 247 268 232 169 106 133 222 235 256 274 332 304 297 173 137 34
223 212 210 207 201 193 190 184 178 170 163 136 128 181 149 160 282 16 12 154 119 201 169 154 84 142 121 176 179 211 197 245 296 247 193 176 166 206 154 223 263 339 303 254 51 63 37
220 209 205 204 198 189 187 183 175 169 163 144 134 148 199 136 117 60 71 358 40 26 155 121 172 174 198 155 196 145 199 195 185 259 4 225 223 172 194 342 91 31 83 65 55 117 24